This demonstration page uses our WeatherBlox Daily Observations layout. Learn more.

Left ArrowRight Arrow

Hourly Observations for October 4, 2022

Temp ( °F °C ) Dew Point ( °F °C ) Humidity (%) Winds ( mph kmh ) Pressure ( in mb ) Visibility ( mi km ) Precip ( " mm )
12:52 am 00:52 Clear 59 15 44 6.7 58 58 SE 9 15 30.17 1022 10 16 0.00 0.00
1:52 am 01:52 Clear 58 14.4 41 5 53 53 SE 8 13 30.16 1021 10 16 0.00 0.00
2:52 am 02:52 Clear 55 12.8 41 5 59 59 SE 7 11 30.16 1021 10 16 0.00 0.00
3:52 am 03:52 Clear 54 12.2 41 5 61 61 SSE 8 13 30.15 1021 10 16 0.00 0.00
4:52 am 04:52 Clear 52 11.1 40 4.4 63 63 SE 7 11 30.14 1021 10 16 0.00 0.00
5:52 am 05:52 Clear 52 11.1 40 4.4 63 63 SSE 8 13 30.15 1021 10 16 0.00 0.00
6:52 am 06:52 Clear 52 11.1 40 4.4 63 63 SSE 8 13 30.16 1021 10 16 0.00 0.00
7:52 am 07:52 Sunny 54 12.2 41 5 61 61 SSE 9 15 30.17 1022 10 16 0.00 0.00
8:52 am 08:52 Sunny 60 15.6 42 5.6 51 51 SSE 9 15 30.19 1022 10 16 0.00 0.00
9:52 am 09:52 Sunny 64 17.8 44 6.7 48 48 S 12 19 30.19 1022 10 16 0.00 0.00
10:52 am 10:52 Sunny 68 20 45 7.2 43 43 S 10 17 30.19 1022 10 16 0.00 0.00
11:52 am 11:52 Sunny 71 21.7 45 7.2 39 39 S 7 11 30.18 1022 10 16 0.00 0.00
12:52 pm 12:52 Sunny 73 22.8 43 6.1 34 34 VRB 6 9 30.16 1021 10 16 0.00 0.00
1:52 pm 13:52 Sunny 76 24.4 42 5.6 30 30 SE 9 15 30.13 1020 10 16 0.00 0.00
2:52 pm 14:52 Sunny 77 25 38 3.3 24 24 SE 9 15 30.09 1019 10 16 0.00 0.00
3:52 pm 15:52 Sunny 78 25.6 40 4.4 25 25 VRB 7 11 30.08 1019 10 16 0.00 0.00
4:52 pm 16:52 Sunny 77 25 38 3.3 24 24 S 7 11 30.07 1018 10 16 0.00 0.00
5:52 pm 17:52 Sunny 76 24.4 37 2.8 24 24 S 6 9 30.07 1018 10 16 0.00 0.00
6:52 pm 18:52 Sunny 67 19.4 40 4.4 37 37 S 6 9 30.09 1019 10 16 0.00 0.00
7:52 pm 19:52 Clear 61 16.1 42 5.6 50 50 SSE 3 6 30.10 1019 10 16 0.00 0.00
8:52 pm 20:52 Clear 59 15 42 5.6 53 53 SE 6 9 30.11 1020 10 16 0.00 0.00
9:52 pm 21:52 Clear 57 13.9 42 5.6 57 57 SSE 8 13 30.11 1020 10 16 0.00 0.00
10:52 pm 22:52 Clear 57 13.9 42 5.6 57 57 SSE 9 15 30.11 1020 10 16 0.00 0.00
11:52 pm 23:52 Clear 56 13.3 43 6.1 62 62 SSE 8 13 30.10 1019 10 16 0.00 0.00

Powered by AerisWeather